Location: Kershaw
(34.5481°N, 80.5823°W)
Time: 14:16:47
(UTC+00:00)

Transit 4A - Pass Details

Date: 06 October 2022
Orbit: 871 x 972 km, 66.8° (Epoch: 29 November)

Event Time Altitude Azimuth Distance (km) Brightness Sun altitude
Rises 11:11:24 0° 340° (NNW) 3,479 10.7 -2.8°
Reaches altitude 10° 11:14:04 10° 348° (NNW) 2,530 10.0 -2.2°
Maximum altitude 11:19:32 41° 58° (ENE) 1,246 9.2 -1.1°
Drops below altitude 10° 11:24:59 10° 128° (SE) 2,515 11.3 0.0°
Sets 11:27:36 0° 135° (SE) 3,456 11.8 0.6°
